Preview of NWS' New Version of Forecast
This preview is not operational and should not be used for support decisions.
Latest weather observations around

Eufaula Municipal Airport (KEUF)

Using International System of Units (Switch to English Units)
Date/ Time (CDT) Wind (kph) Vis. (km) Weather Sky Cond. Temp (°C) Rel. Humidity Wind Chill (°C) Heat Index (°C) Pressure Precip. (cm)
Air Dwpt 6 hour Altimeter (hPa) Sea level (hPa) 1 hr 3 hr 6 hr
Max Min
May 26 23:58 Calm 14.48 Clear CLR 22 21     96%   22 1012.9 1012.4      
May 26 22:58 ENE 5 16.09 Clear CLR 22 22     97%   23 1013.2 1012.7      
May 26 21:58 Calm 16.09 Clear CLR 22 21     93%   23 1012.9 1012.5      
May 26 20:58 Calm 16.09 Clear CLR 23 22     94%   24 1012.2 1011.9      
May 26 19:58 ESE 9 16.09 Clear CLR 24 22     90%   25 1012.2 1011.6      
May 26 18:58 SSE 11 16.09 Clear CLR 24 22     88%   25 1011.9 1011.5     0
May 26 17:58 SSW 9 16.09 Partly Cloudy SCT100 26 21     76%   26 1011.9 1011.4      
May 26 16:58 S 8 16.09 Clear CLR 26 22     77%   28 1011.5 1011.2 0    
May 26 15:58 SE 21 16.09 Light Rain OVC036 26 22     79%   26 1012.5 1012.1 0 0  
May 26 14:58 11 16.09 Clear CLR 31 22     59%   35 1011.5 1011      
May 26 13:58 Calm 16.09 Partly Cloudy FEW039 SCT050 30 21     59%   33 1012.2 1011.6      
May 26 12:58 SSE 9 16.09 Clear CLR 31 22     59%   34 1013.2 1012.6      
May 26 11:58 SW 5 16.09 Clear CLR 30 21     57%   32 1013.9 1013.3      
May 26 10:58 S 11 16.09 Mostly Clear FEW029 30 21     59%   33 1014.6 1014      
May 26 10:04 SSW 8 16.09 Partly Cloudy SCT019 SCT024 29 22     67%   32 1014.6        
May 26 09:58 SE 8 16.09 Mostly Cloudy SCT018 BKN025 29 22     67%   32 1014.6 1014      
May 26 09:21 Calm 16.09 Mostly Cloudy BKN016 BKN026 28 23     74%   32 1014.6        
May 26 08:58 Calm 16.09 Mostly Clear FEW012 27 23     77%   30 1014.6 1014.2      
May 26 07:58 S 5 16.09 Clear CLR 25 22     84%   26 1014.2 1013.9      
May 26 06:58   16.09 Clear CLR 23 22     94%   24 1013.9 1013.5      
May 26 05:58 Calm 14.48 Clear CLR 20 19     96%     1013.6 1013.2      
May 26 04:58 Calm 16.09 Clear CLR 20 19     96%     1013.2 1012.6      
May 26 04:05 Calm 16.09 Mostly Clear FEW006 19 19     97%     1012.9        
May 26 03:58 Calm 16.09 Clear CLR 19 19     97%     1012.9 1012.5      
May 26 02:58 Calm 16.09 Clear CLR 21 20     96%     1012.9 1012.3      
May 26 01:58 Calm 16.09 Clear CLR 21 20     96%     1012.9 1012.5      
May 26 00:58 Calm 16.09 Mostly Cloudy BKN090 BKN110 21 21     97%     1013.6 1013.1 0   0
May 25 23:58 WSW 9 6.44 Rain and Fog/Mist OVC065 21 20     93%     1014.2 1013.9 0    
May 25 23:46 SW 11 11.27 Light Rain FEW040 SCT055 OVC070 22 21     93%   22 1014.6   0    
May 25 23:28 SSW 15 14.48 Thunderstorms and Rain FEW027 BKN036 OVC060 22 21     91%   23 1014.9   0    
May 25 22:58 SSE 13 16.09 Cloudy FEW027 BKN045 OVC055 24 21     82%   24 1014.9 1014.5      
May 25 22:51 SE 9 16.09 Cloudy FEW025 BKN037 OVC065 24 21     82%   24 1014.9        
May 25 21:58 S 5 16.09 Thunderstorms SCT038 24 22     90%   25 1014.6 1014.2      
May 25 20:58 ENE 5 16.09 Thunderstorms BKN033 BKN070 BKN100 25 23     88%   26 1014.6 1014.1      
May 25 20:42 Calm 16.09 Thunderstorms BKN032 BKN040 BKN110 26 23     85%   26 1013.9        
May 25 19:58 Calm 16.09 Mostly Cloudy SCT042 BKN065 BKN080 26 24     90%   27 1013.6 1013      
May 25 18:58 ENE 5 16.09 Clear CLR 27 23     79%   30 1012.9 1012.5     0
May 25 17:58 NE 5 16.09 Clear CLR 29 22     65%   33 1012.5 1012 0    
May 25 16:58 E 13 16.09 Partly Cloudy SCT037 32 22     56%   36 1012.5 1012.2      
May 25 15:58 NNW 11 16.09 Mostly Clear FEW060 31 22     59%   34 1013.2 1012.7      
May 25 14:58 SE 13 16.09 Partly Cloudy FEW035 SCT120 31 22     61%   34 1013.6 1013.1      
May 25 13:58 9 16.09 Clear CLR 32 22     57%   36 1014.6 1014.1      
May 25 12:58 S 13 16.09 Mostly Clear FEW028 31 22     61%   34 1015.2 1014.8      
May 25 12:34   16.09 Mostly Cloudy SCT024 SCT029 BKN050 30 23     65%   34 1015.6        
May 25 12:10 SE 13 16.09 Mostly Cloudy SCT022 BKN029 BKN045 29 22     65%   33 1015.9        
May 25 12:05 Calm 16.09 Partly Cloudy SCT022 29 22     67%   32 1015.9        
May 25 11:58 E 11 16.09 Mostly Cloudy SCT020 BKN028 29 23     68%   33   1015.6      
May 25 11:31 9 16.09 Mostly Cloudy SCT018 BKN025 28 23     72%   32 1016.6        
May 25 10:57 SE 11 16.09 Mostly Cloudy FEW017 SCT024 BKN046 27 23     77%   30 1016.9 1016.4      
May 25 10:19 9 16.09 Cloudy SCT014 OVC019 27 22     74%   30 1016.9        
May 25 09:58 SSE 5 16.09 Mostly Cloudy BKN013 27 23     79%   29 1017.3 1016.7      
May 25 09:32 SSE 9 16.09 Mostly Cloudy BKN011 BKN033 27 23     79%   29 1017.3        
May 25 08:58 S 8 16.09 Cloudy BKN008 OVC021 25 22     84%   26 1017.6 1017.1      
May 25 08:52 SSE 8 16.09 Mostly Cloudy BKN008 BKN021 25 22     84%   26 1017.6        
May 25 08:43 SE 9 16.09 Mostly Cloudy SCT009 SCT014 BKN021 24 22     88%   25 1017.3        
May 25 08:11 Calm 16.09 Mostly Clear FEW008 24 22     88%   25 1017.3        
May 25 07:58 Calm 16.09 Clear CLR 24 22     90%   25 1016.9 1016.6      
May 25 07:37 Calm 16.09 Partly Cloudy SCT016 23 22     94%   24 1016.9        
May 25 07:28 Calm 14.48 Mostly Cloudy SCT013 BKN019 23 22     94%   24 1016.9        
May 25 06:58 Calm 14.48 Cloudy OVC013 23 22     94%   24 1016.9 1016.6      
May 25 06:08 Calm 9.66 Fog/Mist BKN015 22 21     96%   22 1016.9        
May 25 05:58 Calm 8.05 Fog/Mist FEW015 21 21     97%     1016.6 1016.1      
May 25 05:02 Calm 14.48 Partly Cloudy SCT028 22 21     93%   23 1015.9        
May 25 04:58 Calm 14.48 Mostly Cloudy FEW018 BKN028 22 22     97%   23 1015.9 1015.5      
May 25 03:58 Calm 11.27 Cloudy SCT018 OVC025 22 22     97%   23 1015.9 1015.5      
May 25 03:30 Calm 11.27 Mostly Cloudy SCT017 BKN025 22 21     96%   22 1015.9        
May 25 02:58 Calm 14.48 Mostly Clear FEW025 22 22     97%   23 1015.9 1015.5      
May 25 02:05 W 5 16.09 Mostly Cloudy SCT017 BKN035 23 22     94%   24 1016.3        
May 25 01:58 WSW 5 16.09 Cloudy BKN017 OVC033 23 22     94%   24 1016.3 1015.7      
May 25 01:40 Calm 16.09 Cloudy OVC015 23 22     96%   24 1016.3        
May 25 01:18 Calm 16.09 Cloudy BKN013 OVC023 23 22     94%   24 1016.6        
May 25 00:58 Calm 16.09 Mostly Cloudy BKN022 23 22     96%   24 1016.9 1016.4      
May 25 00:04 SW 5 16.09 Mostly Cloudy BKN019 23 22     94%   24 1017.6        
May 24 23:58 Calm 16.09 Partly Cloudy SCT019 23 22     94%   24 1017.6 1017.1      
May 24 23:51 Calm 16.09 Partly Cloudy SCT019 23 22     94%   24 1017.6        
May 24 23:39 S 5 16.09 Mostly Cloudy BKN019 24 23     94%   25 1017.6        
May 24 22:58 S 8 16.09 Partly Cloudy FEW033 SCT046 24 23     94%   25 1018 1017.5      
May 24 21:58 SSE 9 16.09 Mostly Clear FEW024 25 23     90%   26 1017.6 1017.3      
May 24 21:31 SE 8 16.09 Mostly Cloudy SCT026 BKN043 26 23     87%   26 1017.6        
May 24 21:23 ESE 5 14.48 Mostly Cloudy BKN026 25 23     90%   26 1017.6        
May 24 20:58 Calm 9.66 Fog/Mist CLR 24 23     96%   25 1016.9 1016.6      
May 24 19:58 Calm 16.09 Clear CLR 24 23     94%   25 1016.6 1016      
May 24 18:58 Calm 16.09 Clear CLR 27 24     82%   30 1016.3 1015.7      
May 24 18:41 Calm 16.09 Clear CLR 27 24     82%   30 1016.3        
May 24 18:08 Calm 16.09 Thunderstorms CLR 28 22     70%   31 1015.9        
May 24 17:58 Calm 16.09 Clear CLR 29 22     67%   32 1015.6 1015.3      
May 24 16:58 5 16.09 Clear   29 23     68%   33 1015.9 1015.4      
May 24 15:58 8 16.09 Clear CLR 31 23     63%   35 1015.9 1015.6      
May 24 14:58   16.09 Partly Cloudy SCT020 29 23     70%   34 1016.6 1016.2      
May 24 14:39 5 16.09 Partly Cloudy SCT018 29 23     72%   33 1016.6        
May 24 14:10 ENE 11 16.09 Mostly Cloudy BKN016 28 23     74%   32 1017.3        
May 24 13:58 5 16.09 Mostly Clear FEW015 28 23     74%   32 1017.3 1016.9      
May 24 13:54 5 16.09 Partly Cloudy SCT015 28 23     74%   31 1017.6        
May 24 13:50 5 16.09 Mostly Cloudy BKN015 28 23     74%   32          
May 24 13:45 8 16.09 Partly Cloudy SCT013 27 23     79%   30          
May 24 13:05 5 16.09 Mostly Cloudy BKN011 BKN120 27 23     79%   30 1018        
May 24 12:58 WNW 5 16.09 Partly Cloudy SCT011 SCT120 27 23     82%   29   1017.6 0   0
May 24 12:21 Calm 16.09 Mostly Cloudy FEW006 BKN039 24 23     91%   25 1018.6   0    
May 24 11:58 Calm 16.09 Light Rain SCT041 BKN060 OVC110 23 22     94%   24 1019 1018.6 0    
May 24 11:11 Calm 16.09 Light Rain FEW006 BKN120 22 21     93%   23 1019.7   0    
May 24 10:58 S 8 9.66 Thunderstorms and Rain and Fog/Mist SCT005 BKN043 BKN090 23 22     96%   24 1019.7 1019.2 0    
May 24 10:32 Calm 9.66 Thunderstorms and Fog/Mist SCT009 OVC042 23 23     97%   24 1019.7        
May 24 09:58 SE 5 9.66 Thunderstorms and Fog/Mist OVC006 23 22     94%   24 1019.3 1018.9 0 0  
May 24 08:58 Calm 9.66 Thunderstorms and Rain and Fog/Mist BKN007 OVC025 23 22     94%   24 1019 1018.7 0    
May 24 08:56 Calm 9.66 Thunderstorms and Rain and Fog/Mist BKN007 OVC025 23 22     94%   24 1019   0    
May 24 08:47 Calm 14.48 Light Rain FEW009 BKN025 BKN095 23 22     94%   24 1019   0    
May 24 08:41 Calm 14.48 Light Rain FEW010 BKN025 BKN055 23 22     94%   24 1019   0    
May 24 08:20 SW 5 12.87 Mostly Cloudy SCT010 BKN047 BKN055 23 22     96%   24 1018.6        
May 24 08:03 W 5 11.27 Thunderstorms OVC010 23 22     96%   24 1018.6        
May 24 07:58 Calm 11.27 Cloudy BKN009 BKN028 OVC060 23 22     96%   24 1018.6 1018.3      
May 24 07:23 Calm 11.27 Cloudy OVC009 22 22     97%   23 1018.6        
May 24 06:58 Calm 11.27 Cloudy BKN011 OVC060 22 22     97%   23 1018.3 1018      
May 24 06:48 Calm 9.66 Fog/Mist BKN011 OVC060 22 22     97%   23 1018.3        
May 24 05:58 Calm 6.44 Fog/Mist SCT075 21 21     100%     1017.6 1017.2      
May 24 04:58 SW 5 8.05 Fog/Mist SCT011 OVC080 21 21     97%     1017.3 1016.8      
May 24 04:56 SSW 8 8.05 Fog/Mist SCT011 OVC080 21 21     100%     1017.3        
May 24 04:32 Calm 9.66 Fog/Mist BKN011 OVC070 21 21     100%     1017.6        
May 24 04:25 Calm 11.27 Cloudy SCT011 OVC070 21 21     97%     1017.6        
May 24 04:10 Calm 8.05 Thunderstorms and Fog/Mist BKN070 21 21     97%     1017.6        
May 24 03:58 Calm 8.05 Fog/Mist BKN065 21 21     100%     1017.3 1017      
May 24 02:58 Calm 8.05 Fog/Mist CLR 21 21     97%     1017.3 1016.9      
May 24 01:58 Calm 4.83 Fog/Mist CLR 21 21     97%     1017.3 1016.9      
May 24 00:58 Calm 9.66 Fog/Mist CLR 21 21     100%     1017.6 1017.2      
May 23 23:58 Calm 14.48 Clear CLR 22 21     96%   22 1018 1017.5      
May 23 22:58 Calm 16.09 Clear CLR 22 22     97%   23 1018.3 1017.9      
May 23 21:58 5 16.09 Clear CLR 23 22     94%   24 1018.3 1017.8      
May 23 20:58   16.09 Mostly Clear FEW080 23 22     96%   24 1017.6 1017.1      
May 23 19:58 Calm 14.48 Clear CLR 23 23     97%   24 1017.3 1016.9      
May 23 18:58 SSW 5 16.09 Clear CLR 25 23     88%   26 1016.6 1016.2      
May 15 12:58 E 8 16.09 Cloudy OVC075 29 20     59%   31   1013.2     0
May 15 03:58 Calm 16.09 Clear   21 19     90%       1014.2      
May 14 23:58 SSE 9 16.09 Clear CLR 23 19     79%   23 1014.6 1014      
May 14 18:58 ESE 15 16.09 Clear CLR 28 19     57%   30   1013.2      
May 14 16:58 SE 8 16.09 Clear CLR 31 21     55%   33 1013.6 1013.2      
May 14 04:58 Calm 8.05 Fog/Mist CLR 22 21     96%   22 1015.6 1015      
May 13 13:58 8 16.09 Mostly Clear FEW070 36 16     31%   36 1016.9 1016.7      
May 13 05:58 Calm 8.05 Fog/Mist CLR 18 17     93%     1018.3 1017.7      
May 13 03:58 WNW 5 12.87 Clear CLR 18 17     93%     1016.9 1016.5      
May 12 10:58 11 16.09 Clear CLR 32 17     41%   33 1020.7 1020.3      
May 12 00:58 Calm 16.09 Clear CLR 18 17     93%       1018.5      
May 11 23:58 Calm 16.09 Clear CLR 18 17     90%     1019.3 1018.7      
May 11 19:58 Calm 16.09 Clear CLR 23 20     84%   23   1017.3      
May 11 13:58 NE 5 16.09 Clear CLR 33 14     32%   33   1018.2      
May 11 11:58 5 16.09 Clear CLR 32 17     41%   32 1020.3 1019.7      
Jun 12 05:58 Calm 12.87 Clear CLR 22 21     93%   23 1020.3 1019.9      
Jun 11 16:58 S 11 16.09 Clear CLR 28 23     72%   32 1018.6 1018.3      
Jun 11 15:31 SSE 15 16.09 Clear   29 23     68%   33 1020        
Jun 11 14:58 SSE 24 16.09 Cloudy FEW031 BKN042 OVC070 30 23     65%   34 1020 1019.6      
Jun 11 04:33 SE 8 16.09 Partly Cloudy SCT022 24 22     88%   25 1018.6        
Jun 10 15:58 ESE 8 16.09 Mostly Clear FEW080 32 16     37%   32 1016.9 1016.5      
Jun 10 07:58 ESE 8 16.09 Clear CLR 24 18     71%   24 1018.3 1017.9      
Jun 09 16:58 9 16.09 Mostly Clear FEW080 31 16     42%   31 1012.9 1012.4      
Jun 09 11:58 8 16.09 Mostly Clear FEW050 29 16     44%   29 1014.9 1014.3      
Jun 09 08:58 Calm 16.09 Clear CLR 26 17     56%   26 1014.9 1014.5      
Jun 09 04:58 Calm 9.66 Fog/Mist CLR 16 15     93%     1012.5 1012.1      
Jun 09 01:58 Calm 11.27 Clear CLR 17 16     93%     1011.9 1011.3      
Jun 07 21:58 Calm 16.09 Clear CLR 21 18     84%     1009.5 1009.2      
Jun 07 12:05 NE 15 14.48 Light Rain FEW014 SCT024 OVC042 23 21     87%   23 1007.8   0    
Jun 07 10:09 NNE 8 8.05 Light Rain and Fog/Mist FEW010 BKN020 OVC028 23 22     94%   24 1007.5   0    
Jun 07 09:27 Calm 16.09 Cloudy BKN010 OVC015 23 21     87%   24 1007.5        
Jun 07 08:58 8 16.09 Cloudy BKN010 OVC014 23 21     90%   23 1007.1 1006.8      
Jun 06 15:18 SE 13 16.09 Mostly Cloudy BKN024 BKN038 28 22     72%   30 1005.4        
Notice The following observation data may not be complete
Jun 06 06:58   16.09 Cloudy OVC055          %              
Jun 06 02:12 Calm 16.09 Cloudy BKN006 OVC055 24 22     90%   25 1008.5        
Jun 05 19:29 ESE 5 16.09 Mostly Cloudy BKN026 BKN032 26 22     79%   28 1008.8